CZ-6A DEB, 55199

Orbit data source: Space-Track

CZ-6A DEB, 55199 is space debris in SSO originally from a launch on Fri, 11 Nov 2022 UTC launched from the Taiyaun Space Center, China (TSC). Debris objects in space refer to the collection of defunct objects orbiting the Earth. Examples of debris include non-operational satellites, rocket bodies, and fragments generated from explosions, collisions, or faulty payload assembly.

Loading next visibility...
Identifier
55199, 2022-151VQ
Orbit
SSO
Country
Flag of CNCN / PRC
Related business
Manufacturer
SAST
Mission
Spacecraft
Bus & Motor
Unknown
Mass
Unknown
Launch date (UTC)
2022-11-11 (4 years ago)
Launch vehicle
Unknown
Launch site
Taiyaun Space Center, China (TSC)
Object type
Payload
Rocket body
Debris
Shape & HBR
Unknown shape, 0.1 m
Radar Cross Section
Medium (>0.1 m² and <1 m²)

Expand to show TLE details & history
Last TLE update: 2 days ago

TLE from 2 days ago
0 CZ-6A DEB
1 55199U 22151VQ  26234.96732446  .00001909  00000-0  87144-3 0  9994
2 55199  98.8077 245.2506 0044504 125.3133 235.2219 14.22212473190067
Epoch: 2026-08-22T23:12Z
TLE epoch observation values (Epoch: 2026-08-22T23:12:56.833Z)
Latitude
0.00007°
Longitude
-74.25635°
Altitude
839.161 km
Speed
7.424 km/s
True Right ascension
16h 21m 00s
True Declination
0° 00' 00"
Sunlit
Object was in daylight at epoch
Visualization orbit readout
Latitude
Unknown
Longitude
Unknown
Altitude
Unknown
Speed
Unknown
Apparent Right ascension
Unknown
Apparent Declination
Unknown
Sunlit
N/A
Visualization observer readout
Local Sidereal Time
06:26:07
Azimuth
Unknown
Elevation
Unknown
Doppler factor
Unknown
Orbital elements
Apogee altitude
847.053 km
Perigee altitude
783.028 km
Semi-major axis
7,193.177 km
Eccentricity
0.00445
Inclination
98.8077°
RAAN
245.2506°
Arg. of periapsis
125.3133°
True anomaly
234.80435°
Mean anomaly
235.2219°
Eccentric anomaly
235.01299°
Mean motion
3.55764 °/min
Orbital period
101.19 mins
BSTAR
0.00087144
Loading maneuver chart data...
Computing Atmospheric mass density...
Loading historical data...
Loading historical data...
Loading historical data...
Loading historical data...
Loading historical data...
Loading historical data...
Loading historical data...

Documentation

Showing up to 5 results
|